UAL2743 KLAX-KEWR

Flight info

Callsign UAL2743
Flight time N/A
Altitude 39000
Route ORCKA5 LAS J146 DVC HBU MCK OVR DSM EVOTE NELLS KEEHO J584 SLT FQM3
Aircraft B772/H-SDE2E3FGHIJ5LORVWXY/LB1D1

Departure

Time 2026-05-06 14:31
Airport Los Angeles International Airport (KLAX)

Arrival

Time N/A
Airport Newark Liberty International Airport (KEWR)
Time Latitude Longitude Altitude Speed Heading
2026-05-06 13:37 33.94020 -118.39998 130 ft 0 kts 28°
2026-05-06 13:49 33.94019 -118.39999 124 ft 0 kts 28°
2026-05-06 13:49 33.94018 -118.39999 124 ft 0 kts 32°
2026-05-06 13:49 33.94017 -118.40000 124 ft 0 kts 35°
2026-05-06 13:50 33.94015 -118.40000 124 ft 0 kts 39°
2026-05-06 13:50 33.94014 -118.40001 124 ft 0 kts 43°
2026-05-06 13:58 33.94013 -118.40002 130 ft 0 kts 49°
2026-05-06 13:58 33.94012 -118.40003 130 ft 0 kts 52°
2026-05-06 13:58 33.94011 -118.40004 124 ft 0 kts 56°
2026-05-06 13:59 33.94010 -118.40006 124 ft 0 kts 60°
2026-05-06 13:59 33.94009 -118.40007 124 ft 0 kts 64°
2026-05-06 13:59 33.94008 -118.40008 124 ft 0 kts 68°
2026-05-06 13:59 33.94007 -118.40010 124 ft 0 kts 72°
2026-05-06 14:14 33.94005 -118.40018 126 ft 2 kts 73°
2026-05-06 14:14 33.94000 -118.40037 126 ft 2 kts 71°
2026-05-06 14:15 33.93995 -118.40055 124 ft 2 kts 69°
2026-05-06 14:15 33.93989 -118.40074 124 ft 2 kts 66°
2026-05-06 14:15 33.93982 -118.40091 124 ft 2 kts 63°
2026-05-06 14:15 33.93974 -118.40109 124 ft 2 kts 57°
2026-05-06 14:16 33.93965 -118.40124 124 ft 2 kts 49°
2026-05-06 14:16 33.93953 -118.40138 124 ft 2 kts 43°
2026-05-06 14:16 33.93946 -118.40146 125 ft 0 kts 90°
2026-05-06 14:18 33.93946 -118.40142 124 ft 0 kts 82°
2026-05-06 14:22 33.93949 -118.40109 124 ft 8 kts 85°
2026-05-06 14:22 33.93927 -118.40057 126 ft 7 kts 139°
2026-05-06 14:22 33.93882 -118.39985 125 ft 14 kts 100°
2026-05-06 14:22 33.93894 -118.39837 126 ft 21 kts 83°
2026-05-06 14:23 33.93916 -118.39635 130 ft 27 kts 83°
2026-05-06 14:23 33.93941 -118.39388 126 ft 32 kts 83°
2026-05-06 14:23 33.93965 -118.39156 126 ft 26 kts 83°
2026-05-06 14:23 33.93987 -118.38942 128 ft 26 kts 83°
2026-05-06 14:24 33.94011 -118.38699 126 ft 32 kts 83°
2026-05-06 14:24 33.94031 -118.38503 129 ft 4 kts 83°
2026-05-06 14:24 33.94035 -118.38466 127 ft 7 kts 83°
2026-05-06 14:24 33.94040 -118.38415 126 ft 11 kts 83°
2026-05-06 14:25 33.94041 -118.38366 129 ft 4 kts 99°
2026-05-06 14:25 33.94038 -118.38359 125 ft 0 kts 117°
2026-05-06 14:27 33.94013 -118.38324 124 ft 10 kts 147°
2026-05-06 14:27 33.93957 -118.38336 125 ft 6 kts 244°
2026-05-06 14:27 33.93943 -118.38433 126 ft 13 kts 262°
2026-05-06 14:27 33.93943 -118.38438 126 ft 0 kts 262°
2026-05-06 14:30 33.93934 -118.38515 127 ft 31 kts 262°
2026-05-06 14:30 33.93879 -118.39059 130 ft 102 kts 263°
2026-05-06 14:31 33.93762 -118.40192 147 ft 167 kts 262°
2026-05-06 14:31 33.93569 -118.41611 842 ft 172 kts 261°
2026-05-06 14:31 33.93409 -118.43032 1789 ft 171 kts 262°
2026-05-06 14:31 33.93232 -118.44368 2521 ft 154 kts 249°
2026-05-06 14:32 33.92636 -118.45336 2901 ft 137 kts 225°
2026-05-06 14:32 33.92033 -118.46189 3004 ft 133 kts 234°
2026-05-06 14:32 33.91425 -118.47132 2928 ft 154 kts 233°
2026-05-06 14:32 33.90735 -118.48185 3103 ft 165 kts 234°
2026-05-06 14:33 33.89978 -118.49326 3241 ft 189 kts 231°
2026-05-06 14:33 33.89054 -118.50604 3340 ft 213 kts 232°
2026-05-06 14:33 33.88075 -118.52057 3565 ft 234 kts 232°
2026-05-06 14:33 33.86978 -118.53634 3791 ft 255 kts 232°
2026-05-06 14:34 33.85774 -118.55251 4219 ft 265 kts 221°
2026-05-06 14:34 33.84107 -118.56272 4735 ft 275 kts 198°
2026-05-06 14:34 33.82219 -118.56803 5349 ft 281 kts 192°
2026-05-06 14:34 33.80292 -118.57259 6047 ft 283 kts 191°
2026-05-06 14:35 33.78354 -118.57725 6741 ft 286 kts 191°
2026-05-06 14:35 33.76393 -118.58210 7384 ft 289 kts 191°
2026-05-06 14:35 33.74401 -118.58520 7877 ft 292 kts 174°
2026-05-06 14:35 33.72457 -118.57846 8452 ft 292 kts 147°
2026-05-06 14:36 33.70981 -118.56241 9203 ft 286 kts 121°
2026-05-06 14:36 33.70248 -118.54067 9941 ft 280 kts 95°
2026-05-06 14:36 33.70363 -118.51738 10383 ft 288 kts 72°
2026-05-06 14:36 33.71272 -118.49510 10546 ft 309 kts 56°
2026-05-06 14:37 33.72560 -118.47321 10769 ft 332 kts 52°
2026-05-06 14:37 33.74000 -118.45033 11411 ft 342 kts 52°
2026-05-06 14:37 33.75457 -118.42737 12280 ft 348 kts 51°
2026-05-06 14:37 33.76932 -118.40409 13260 ft 352 kts 51°
2026-05-06 14:38 33.78501 -118.37916 14247 ft 356 kts 51°
2026-05-06 14:38 33.79999 -118.35522 15093 ft 361 kts 51°
2026-05-06 14:38 33.81537 -118.33060 15933 ft 366 kts 51°
2026-05-06 14:38 33.83094 -118.30565 16774 ft 370 kts 51°
2026-05-06 14:39 33.84643 -118.28080 17591 ft 374 kts 51°
2026-05-06 14:39 33.86215 -118.25560 18400 ft 378 kts 51°
2026-05-06 14:39 33.87319 -118.23789 18868 ft 381 kts 51°
2026-05-06 14:39 33.88911 -118.21233 19569 ft 384 kts 51°
2026-05-06 14:40 33.90546 -118.18603 20297 ft 387 kts 51°
2026-05-06 14:40 33.92161 -118.15996 20994 ft 390 kts 51°
2026-05-06 14:40 33.93788 -118.13362 21670 ft 394 kts 51°
2026-05-06 14:40 33.95425 -118.10703 22343 ft 397 kts 51°
2026-05-06 14:41 33.97078 -118.08010 22995 ft 401 kts 51°
2026-05-06 14:41 33.98755 -118.05318 23624 ft 401 kts 48°
2026-05-06 14:41 34.00681 -118.02880 24045 ft 407 kts 42°
2026-05-06 14:41 34.02751 -118.00533 24626 ft 409 kts 42°
2026-05-06 14:42 34.04798 -117.98147 25283 ft 409 kts 44°
2026-05-06 14:42 34.06745 -117.95620 25871 ft 411 kts 47°
2026-05-06 14:42 34.08609 -117.92988 26414 ft 414 kts 48°
2026-05-06 14:42 34.10478 -117.90325 26933 ft 418 kts 48°
2026-05-06 14:43 34.12386 -117.87599 27446 ft 420 kts 48°
2026-05-06 14:43 34.14277 -117.84899 27912 ft 423 kts 48°
2026-05-06 14:43 34.16190 -117.82171 28358 ft 426 kts 48°
2026-05-06 14:43 34.18113 -117.79432 28818 ft 428 kts 49°
2026-05-06 14:44 34.20045 -117.76679 29258 ft 431 kts 49°
2026-05-06 14:44 34.21989 -117.73909 29671 ft 433 kts 49°
2026-05-06 14:44 34.23942 -117.71123 30082 ft 435 kts 49°
2026-05-06 14:45 34.27837 -117.65568 30727 ft 437 kts 49°
2026-05-06 14:45 34.29804 -117.62758 30976 ft 439 kts 49°
2026-05-06 14:45 34.31782 -117.59931 31239 ft 441 kts 49°
2026-05-06 14:45 34.33772 -117.57086 31532 ft 442 kts 49°
2026-05-06 14:46 34.35755 -117.54245 31924 ft 440 kts 49°
2026-05-06 14:46 34.37725 -117.51421 32345 ft 438 kts 49°
2026-05-06 14:46 34.39685 -117.48610 32782 ft 435 kts 48°
2026-05-06 14:46 34.41636 -117.45809 33220 ft 433 kts 48°
2026-05-06 14:47 34.43573 -117.43027 33666 ft 431 kts 48°
2026-05-06 14:47 34.45499 -117.40259 34148 ft 429 kts 48°
2026-05-06 14:47 34.47418 -117.37497 34461 ft 429 kts 48°
2026-05-06 14:47 34.49345 -117.34724 34676 ft 431 kts 48°
2026-05-06 14:48 34.51259 -117.31967 34859 ft 432 kts 48°
2026-05-06 14:48 34.53199 -117.29169 35121 ft 433 kts 48°
2026-05-06 14:48 34.55137 -117.26373 35383 ft 433 kts 48°
2026-05-06 14:48 34.57074 -117.23575 35619 ft 433 kts 49°
2026-05-06 14:49 34.59014 -117.20771 35856 ft 434 kts 49°
2026-05-06 14:49 34.60952 -117.17967 36025 ft 434 kts 49°
2026-05-06 14:49 34.62895 -117.15153 36238 ft 435 kts 49°
2026-05-06 14:49 34.64848 -117.12325 36445 ft 436 kts 49°
2026-05-06 14:50 34.66798 -117.09497 36681 ft 437 kts 49°
2026-05-06 14:50 34.68745 -117.06670 36927 ft 437 kts 49°
2026-05-06 14:50 34.70707 -117.03822 37150 ft 438 kts 49°
2026-05-06 14:50 34.72659 -117.00984 37391 ft 438 kts 49°
2026-05-06 14:51 34.74582 -116.98186 37602 ft 439 kts 49°
2026-05-06 14:51 34.76514 -116.95373 37806 ft 439 kts 49°
2026-05-06 14:51 34.78474 -116.92518 38005 ft 440 kts 49°
2026-05-06 14:51 34.80437 -116.89654 38230 ft 440 kts 49°
2026-05-06 14:52 34.82398 -116.86793 38461 ft 441 kts 49°
2026-05-06 14:52 34.86348 -116.81021 38724 ft 444 kts 49°
2026-05-06 14:52 34.88326 -116.78126 38916 ft 444 kts 49°
2026-05-06 14:53 34.90309 -116.75223 39002 ft 446 kts 49°
2026-05-06 14:53 34.94285 -116.69394 39086 ft 447 kts 49°
2026-05-06 14:54 34.98254 -116.63564 39078 ft 446 kts 49°
2026-05-06 14:54 35.02195 -116.57767 39065 ft 446 kts 49°
2026-05-06 14:55 35.06156 -116.51929 39055 ft 446 kts 49°
2026-05-06 14:55 35.10120 -116.46078 39035 ft 447 kts 49°
2026-05-06 14:56 35.14085 -116.40217 39030 ft 448 kts 49°
2026-05-06 14:56 35.18025 -116.34382 39047 ft 448 kts 49°
2026-05-06 14:57 35.21985 -116.28507 39048 ft 446 kts 49°
2026-05-06 14:57 35.25931 -116.22643 39046 ft 446 kts 49°
2026-05-06 14:58 35.29870 -116.16780 39040 ft 446 kts 49°
2026-05-06 14:58 35.33806 -116.10911 39046 ft 445 kts 49°
2026-05-06 14:59 35.37733 -116.05045 39046 ft 445 kts 49°
2026-05-06 14:59 35.41621 -115.99228 39054 ft 444 kts 49°
2026-05-06 15:00 35.45534 -115.93365 39061 ft 444 kts 49°
2026-05-06 15:00 35.49427 -115.87521 39068 ft 444 kts 50°
2026-05-06 15:01 35.53342 -115.81634 39067 ft 445 kts 50°
2026-05-06 15:01 35.57252 -115.75744 39068 ft 445 kts 50°
2026-05-06 15:02 35.61170 -115.69832 39067 ft 445 kts 50°
2026-05-06 15:02 35.65052 -115.63965 39087 ft 445 kts 50°
2026-05-06 15:03 35.68969 -115.58034 39071 ft 447 kts 50°
2026-05-06 15:03 35.72895 -115.52081 39071 ft 448 kts 50°
2026-05-06 15:04 35.76818 -115.46120 39069 ft 448 kts 50°
2026-05-06 15:04 35.80717 -115.40186 39073 ft 449 kts 50°
2026-05-06 15:05 35.84655 -115.34182 39062 ft 449 kts 50°
2026-05-06 15:05 35.88583 -115.28181 39099 ft 449 kts 49°
2026-05-06 15:06 35.92498 -115.22192 39090 ft 448 kts 49°
2026-05-06 15:06 35.96400 -115.16212 39089 ft 446 kts 50°
2026-05-06 15:07 36.00263 -115.10279 39090 ft 444 kts 50°
2026-05-06 15:07 36.04105 -115.04370 39063 ft 443 kts 50°
2026-05-06 15:08 36.07923 -114.98487 39056 ft 443 kts 50°
2026-05-06 15:08 36.11775 -114.92542 38998 ft 443 kts 50°
2026-05-06 15:09 36.15622 -114.86577 38992 ft 443 kts 51°
2026-05-06 15:09 36.18852 -114.80064 38984 ft 446 kts 60°
2026-05-06 15:10 36.21219 -114.73060 38975 ft 449 kts 66°
2026-05-06 15:10 36.23434 -114.65684 38956 ft 450 kts 67°
2026-05-06 15:11 36.25621 -114.58407 38939 ft 450 kts 66°
2026-05-06 15:11 36.27813 -114.51176 38943 ft 451 kts 66°
2026-05-06 15:12 36.30025 -114.43896 38947 ft 451 kts 66°
2026-05-06 15:12 36.32230 -114.36630 38949 ft 450 kts 66°
2026-05-06 15:13 36.34413 -114.29413 38935 ft 450 kts 66°
2026-05-06 15:13 36.36608 -114.22139 38942 ft 450 kts 66°
2026-05-06 15:14 36.38796 -114.14864 38946 ft 450 kts 66°
2026-05-06 15:14 36.40983 -114.07577 38947 ft 450 kts 66°
2026-05-06 15:15 36.42801 -114.01504 38949 ft 451 kts 66°
2026-05-06 15:15 36.44962 -113.94271 38965 ft 451 kts 66°
2026-05-06 15:16 36.47146 -113.86941 38969 ft 452 kts 66°
2026-05-06 15:16 36.49323 -113.79613 38971 ft 452 kts 67°
2026-05-06 15:17 36.51500 -113.72268 38980 ft 453 kts 67°
2026-05-06 15:17 36.53679 -113.64896 38971 ft 456 kts 67°
2026-05-06 15:18 36.55853 -113.57521 38985 ft 457 kts 67°
2026-05-06 15:18 36.58042 -113.50074 38982 ft 459 kts 67°
2026-05-06 15:19 36.60230 -113.42610 39004 ft 459 kts 67°
2026-05-06 15:19 36.62420 -113.35125 39001 ft 461 kts 67°
2026-05-06 15:20 36.64606 -113.27595 38999 ft 463 kts 68°
2026-05-06 15:20 36.66775 -113.20071 39025 ft 464 kts 68°
2026-05-06 15:21 36.68952 -113.12503 39055 ft 464 kts 68°
2026-05-06 15:21 36.71132 -113.04909 39076 ft 465 kts 68°
2026-05-06 15:22 36.73279 -112.97411 39082 ft 466 kts 68°
2026-05-06 15:22 36.75451 -112.89804 39082 ft 466 kts 68°
2026-05-06 15:23 36.77620 -112.82186 39070 ft 466 kts 68°
2026-05-06 15:23 36.79790 -112.74543 39061 ft 467 kts 68°
2026-05-06 15:24 36.81956 -112.66895 39021 ft 468 kts 68°
2026-05-06 15:24 36.84123 -112.59220 38996 ft 468 kts 68°
2026-05-06 15:25 36.86272 -112.51583 38984 ft 468 kts 68°
2026-05-06 15:25 36.88430 -112.43899 38998 ft 469 kts 67°
2026-05-06 15:26 36.90594 -112.36195 38987 ft 471 kts 68°
2026-05-06 15:26 36.92766 -112.28456 38967 ft 472 kts 68°
2026-05-06 15:27 36.94936 -112.20702 38965 ft 473 kts 67°
2026-05-06 15:27 36.97099 -112.12952 38957 ft 474 kts 68°
2026-05-06 15:28 36.99275 -112.05132 38925 ft 476 kts 68°
2026-05-06 15:28 37.01435 -111.97346 38928 ft 479 kts 68°
2026-05-06 15:29 37.03606 -111.89496 38909 ft 481 kts 68°
2026-05-06 15:29 37.05789 -111.81579 38926 ft 481 kts 68°
2026-05-06 15:30 37.07966 -111.73659 38897 ft 481 kts 69°
2026-05-06 15:30 37.10139 -111.65732 38894 ft 480 kts 69°
2026-05-06 15:31 37.12302 -111.57813 38894 ft 480 kts 69°
2026-05-06 15:31 37.14459 -111.49898 38970 ft 479 kts 69°
2026-05-06 15:32 37.17677 -111.38042 38958 ft 478 kts 69°
2026-05-06 15:32 37.19802 -111.30184 38930 ft 478 kts 69°
2026-05-06 15:33 37.21933 -111.22286 38913 ft 478 kts 69°
2026-05-06 15:33 37.24054 -111.14392 38902 ft 477 kts 69°
2026-05-06 15:34 37.26176 -111.06468 38906 ft 479 kts 69°
2026-05-06 15:34 37.28281 -110.98584 38901 ft 481 kts 69°
2026-05-06 15:35 37.30406 -110.90599 38896 ft 482 kts 69°
2026-05-06 15:35 37.32531 -110.82594 38899 ft 484 kts 69°
2026-05-06 15:36 37.34673 -110.74498 38898 ft 486 kts 69°
2026-05-06 15:36 37.36795 -110.66451 38887 ft 489 kts 69°
2026-05-06 15:37 37.38938 -110.58299 38887 ft 491 kts 69°
2026-05-06 15:37 37.41079 -110.50126 38885 ft 492 kts 69°
2026-05-06 15:38 37.43218 -110.41936 38896 ft 493 kts 69°
2026-05-06 15:38 37.45358 -110.33717 38898 ft 494 kts 69°
2026-05-06 15:39 37.47494 -110.25486 38895 ft 495 kts 69°
2026-05-06 15:39 37.49613 -110.17292 38902 ft 495 kts 69°
2026-05-06 15:40 37.51742 -110.09034 38912 ft 496 kts 69°
2026-05-06 15:40 37.53875 -110.00738 38917 ft 497 kts 69°
2026-05-06 15:41 37.55983 -109.92507 38919 ft 499 kts 69°
2026-05-06 15:41 37.58114 -109.84160 38922 ft 499 kts 69°
2026-05-06 15:42 37.60238 -109.75810 38916 ft 500 kts 69°
2026-05-06 15:42 37.62348 -109.67492 39030 ft 502 kts 69°
2026-05-06 15:43 37.64472 -109.59090 39064 ft 503 kts 69°
2026-05-06 15:43 37.66595 -109.50659 39065 ft 504 kts 69°
2026-05-06 15:44 37.68715 -109.42214 39065 ft 505 kts 70°
2026-05-06 15:44 37.70835 -109.33741 39023 ft 507 kts 70°
2026-05-06 15:45 37.72954 -109.25244 38990 ft 507 kts 70°
2026-05-06 15:45 37.75068 -109.16731 38959 ft 507 kts 70°
2026-05-06 15:46 37.77164 -109.08264 38944 ft 508 kts 70°
2026-05-06 15:46 37.79258 -108.99783 38942 ft 509 kts 70°
2026-05-06 15:47 37.81466 -108.91299 38933 ft 507 kts 65°
2026-05-06 15:47 37.84285 -108.83142 38919 ft 505 kts 63°
2026-05-06 15:48 37.87189 -108.75033 38934 ft 505 kts 63°
2026-05-06 15:48 37.90046 -108.66945 38923 ft 506 kts 63°
2026-05-06 15:49 37.92908 -108.58727 38925 ft 507 kts 64°
2026-05-06 15:49 37.95725 -108.50589 38925 ft 508 kts 64°
2026-05-06 15:50 37.97142 -108.46484 39051 ft 508 kts 64°
2026-05-06 15:50 37.98558 -108.42381 39083 ft 508 kts 64°
2026-05-06 15:50 38.01392 -108.34157 39050 ft 510 kts 63°
2026-05-06 15:51 38.04235 -108.25886 39013 ft 512 kts 64°
2026-05-06 15:51 38.07077 -108.17596 38956 ft 513 kts 64°
2026-05-06 15:52 38.09919 -108.09280 38946 ft 513 kts 64°
2026-05-06 15:52 38.12761 -108.00940 38941 ft 515 kts 64°
2026-05-06 15:53 38.15573 -107.92663 38938 ft 515 kts 64°
2026-05-06 15:53 38.18388 -107.84352 38949 ft 514 kts 64°
2026-05-06 15:54 38.21212 -107.75994 38937 ft 514 kts 64°
2026-05-06 15:54 38.24031 -107.67629 38943 ft 514 kts 64°
2026-05-06 15:55 38.26852 -107.59231 38926 ft 514 kts 64°
2026-05-06 15:55 38.29636 -107.50919 38933 ft 513 kts 64°
2026-05-06 15:56 38.32428 -107.42559 38922 ft 512 kts 64°
2026-05-06 15:56 38.35215 -107.34191 38913 ft 513 kts 64°
2026-05-06 15:57 38.37980 -107.25864 38932 ft 513 kts 64°
2026-05-06 15:57 38.40758 -107.17473 38956 ft 514 kts 64°
2026-05-06 15:58 38.43539 -107.09048 38996 ft 515 kts 65°
2026-05-06 15:58 38.45840 -107.02034 39036 ft 516 kts 65°
2026-05-06 15:59 38.48460 -106.93566 39036 ft 519 kts 66°
2026-05-06 15:59 38.51053 -106.84943 38880 ft 520 kts 66°
2026-05-06 16:00 38.53654 -106.76307 38880 ft 521 kts 66°
2026-05-06 16:00 38.56270 -106.67657 38892 ft 523 kts 66°
2026-05-06 16:01 38.58898 -106.58971 38904 ft 525 kts 66°
2026-05-06 16:01 38.61513 -106.50292 38897 ft 527 kts 66°
2026-05-06 16:02 38.64149 -106.41518 38981 ft 528 kts 66°
2026-05-06 16:02 38.66775 -106.32742 39028 ft 528 kts 66°
2026-05-06 16:03 38.69391 -106.23968 39078 ft 527 kts 66°
2026-05-06 16:03 38.72004 -106.15176 39090 ft 526 kts 66°
2026-05-06 16:04 38.74500 -106.06756 39099 ft 524 kts 66°
2026-05-06 16:04 38.77035 -105.98176 39108 ft 523 kts 66°
2026-05-06 16:05 38.79586 -105.89517 39069 ft 524 kts 67°
2026-05-06 16:05 38.82047 -105.81134 39083 ft 524 kts 67°
2026-05-06 16:06 38.84588 -105.72453 39092 ft 524 kts 67°
2026-05-06 16:06 38.87146 -105.63683 39119 ft 524 kts 67°
2026-05-06 16:07 38.89677 -105.54978 39117 ft 526 kts 68°
2026-05-06 16:07 38.92191 -105.46155 39138 ft 527 kts 72°
2026-05-06 16:08 38.93631 -105.36883 39151 ft 530 kts 81°
2026-05-06 16:08 38.94562 -105.27465 39154 ft 532 kts 82°
2026-05-06 16:09 38.95444 -105.17995 39167 ft 533 kts 82°
2026-05-06 16:09 38.96319 -105.08528 39167 ft 534 kts 82°
2026-05-06 16:10 38.97182 -104.99188 39145 ft 535 kts 82°
2026-05-06 16:10 38.98058 -104.89745 39133 ft 536 kts 83°
2026-05-06 16:11 38.98959 -104.80227 39141 ft 536 kts 82°
2026-05-06 16:11 38.99870 -104.70703 39132 ft 537 kts 82°
2026-05-06 16:12 39.00790 -104.61162 39154 ft 538 kts 82°
2026-05-06 16:12 39.01716 -104.51621 39156 ft 537 kts 82°
2026-05-06 16:13 39.02648 -104.42082 39171 ft 537 kts 82°
2026-05-06 16:13 39.03583 -104.32555 39188 ft 537 kts 82°
2026-05-06 16:14 39.04526 -104.23020 39209 ft 537 kts 82°
2026-05-06 16:14 39.05482 -104.13498 39220 ft 537 kts 82°
2026-05-06 16:15 39.06458 -104.04031 39212 ft 537 kts 82°
2026-05-06 16:15 39.07444 -103.94608 39201 ft 536 kts 82°
2026-05-06 16:16 39.08449 -103.85085 39191 ft 536 kts 82°
2026-05-06 16:16 39.09478 -103.75547 39176 ft 538 kts 82°
2026-05-06 16:17 39.10524 -103.66064 39178 ft 539 kts 82°
2026-05-06 16:17 39.11761 -103.56530 39165 ft 540 kts 75°
2026-05-06 16:18 39.14250 -103.47411 39172 ft 539 kts 63°
2026-05-06 16:18 39.17595 -103.38762 39176 ft 539 kts 59°
2026-05-06 16:19 39.21074 -103.30251 39172 ft 540 kts 60°
2026-05-06 16:19 39.24490 -103.21593 39167 ft 542 kts 61°
2026-05-06 16:20 39.27835 -103.12845 39175 ft 543 kts 62°
2026-05-06 16:20 39.31160 -103.04066 39172 ft 544 kts 62°
2026-05-06 16:21 39.34431 -102.95423 39170 ft 544 kts 62°
2026-05-06 16:21 39.37758 -102.86629 39171 ft 544 kts 62°
2026-05-06 16:22 39.41078 -102.77833 39160 ft 544 kts 62°
2026-05-06 16:22 39.44384 -102.69048 39151 ft 542 kts 62°
2026-05-06 16:23 39.47669 -102.60290 39162 ft 540 kts 62°
2026-05-06 16:23 39.50920 -102.51599 39164 ft 539 kts 62°
2026-05-06 16:24 39.54179 -102.42861 39174 ft 539 kts 62°
2026-05-06 16:24 39.57445 -102.34079 39167 ft 540 kts 62°
2026-05-06 16:25 39.60722 -102.25240 39216 ft 541 kts 62°
2026-05-06 16:25 39.63963 -102.16473 39182 ft 542 kts 63°
2026-05-06 16:26 39.67210 -102.07661 39189 ft 542 kts 63°
2026-05-06 16:26 39.70427 -101.98905 39181 ft 542 kts 63°
2026-05-06 16:27 39.73671 -101.90048 39193 ft 542 kts 63°
2026-05-06 16:27 39.76908 -101.81187 39192 ft 543 kts 63°
2026-05-06 16:28 39.80138 -101.72317 39197 ft 543 kts 63°
2026-05-06 16:28 39.83365 -101.63427 39189 ft 544 kts 63°
2026-05-06 16:29 39.86559 -101.54603 39191 ft 545 kts 63°
2026-05-06 16:29 39.89812 -101.45588 39189 ft 546 kts 63°
2026-05-06 16:30 39.92498 -101.38122 39201 ft 547 kts 63°
2026-05-06 16:30 39.96244 -101.27676 39183 ft 546 kts 63°
2026-05-06 16:31 39.99445 -101.18720 39219 ft 543 kts 63°
2026-05-06 16:31 40.02620 -101.09811 39222 ft 541 kts 63°
2026-05-06 16:32 40.05766 -101.00956 39217 ft 540 kts 63°
2026-05-06 16:32 40.08887 -100.92145 39187 ft 539 kts 63°
2026-05-06 16:33 40.12027 -100.83252 39188 ft 539 kts 63°
2026-05-06 16:34 40.16728 -100.69889 39187 ft 540 kts 64°
2026-05-06 16:34 40.19843 -100.60941 39188 ft 541 kts 65°
2026-05-06 16:35 40.22256 -100.51685 39182 ft 542 kts 73°
2026-05-06 16:35 40.24279 -100.42253 39189 ft 544 kts 74°
2026-05-06 16:36 40.26310 -100.32702 39191 ft 545 kts 73°
2026-05-06 16:36 40.28387 -100.23119 39185 ft 546 kts 73°
2026-05-06 16:37 40.30469 -100.13597 39191 ft 547 kts 73°
2026-05-06 16:37 40.32559 -100.04002 39187 ft 548 kts 73°
2026-05-06 16:38 40.34625 -99.94461 39182 ft 548 kts 73°
2026-05-06 16:38 40.36697 -99.84834 39183 ft 548 kts 73°
2026-05-06 16:39 40.38763 -99.75196 39179 ft 549 kts 74°
2026-05-06 16:39 40.40823 -99.65541 39182 ft 550 kts 74°
2026-05-06 16:40 40.42879 -99.55863 39181 ft 550 kts 74°
2026-05-06 16:40 40.44928 -99.46173 39179 ft 551 kts 74°
2026-05-06 16:41 40.46963 -99.36506 39171 ft 552 kts 74°
2026-05-06 16:41 40.48654 -99.28437 39178 ft 552 kts 74°
2026-05-06 16:42 40.50689 -99.18688 39183 ft 553 kts 74°
2026-05-06 16:42 40.52718 -99.08922 39188 ft 553 kts 74°
2026-05-06 16:43 40.54706 -98.99307 39181 ft 554 kts 74°
2026-05-06 16:43 40.56721 -98.89519 39197 ft 554 kts 74°
2026-05-06 16:44 40.58727 -98.79729 39178 ft 554 kts 74°
2026-05-06 16:44 40.60722 -98.69945 39178 ft 552 kts 75°
2026-05-06 16:45 40.63024 -98.58598 39175 ft 552 kts 75°
2026-05-06 16:45 40.64677 -98.50411 39174 ft 552 kts 75°
2026-05-06 16:46 40.66632 -98.40686 39184 ft 552 kts 75°
2026-05-06 16:46 40.68590 -98.30897 39192 ft 552 kts 75°
2026-05-06 16:47 40.70543 -98.21089 39183 ft 553 kts 75°
2026-05-06 16:47 40.72493 -98.11250 39176 ft 554 kts 75°
2026-05-06 16:48 40.74421 -98.01472 39175 ft 554 kts 75°
2026-05-06 16:48 40.76335 -97.91714 39161 ft 555 kts 75°
2026-05-06 16:49 40.78266 -97.81827 39182 ft 556 kts 75°
2026-05-06 16:49 40.80188 -97.71935 39178 ft 557 kts 75°
2026-05-06 16:50 40.82105 -97.62018 39179 ft 558 kts 75°
2026-05-06 16:50 40.84017 -97.52078 39178 ft 559 kts 75°
2026-05-06 16:51 40.85923 -97.42119 39179 ft 559 kts 75°
2026-05-06 16:51 40.87810 -97.32211 39180 ft 560 kts 75°
2026-05-06 16:52 40.89704 -97.22211 39182 ft 560 kts 76°
2026-05-06 16:52 40.91586 -97.12226 39200 ft 559 kts 76°
2026-05-06 16:53 40.93458 -97.02240 39188 ft 557 kts 76°
2026-05-06 16:53 40.95297 -96.92384 39182 ft 555 kts 76°
2026-05-06 16:54 40.97124 -96.82539 39187 ft 553 kts 76°
2026-05-06 16:54 40.98950 -96.72653 39189 ft 553 kts 76°
2026-05-06 16:55 41.00767 -96.62761 39184 ft 554 kts 76°
2026-05-06 16:55 41.02586 -96.52804 39165 ft 555 kts 76°
2026-05-06 16:56 41.04385 -96.42907 39164 ft 556 kts 76°
2026-05-06 16:56 41.06193 -96.32906 39171 ft 557 kts 76°
2026-05-06 16:57 41.07994 -96.22896 39177 ft 558 kts 76°
2026-05-06 16:57 41.09786 -96.12874 39175 ft 559 kts 76°
2026-05-06 16:58 41.11574 -96.02826 39159 ft 560 kts 76°
2026-05-06 16:58 41.13328 -95.92914 39167 ft 561 kts 76°
2026-05-06 16:59 41.15103 -95.82826 39165 ft 561 kts 76°
2026-05-06 16:59 41.16871 -95.72722 39160 ft 562 kts 77°
2026-05-06 17:00 41.18387 -95.62537 39153 ft 563 kts 80°
2026-05-06 17:00 41.19719 -95.52286 39159 ft 563 kts 81°
2026-05-06 17:01 41.21066 -95.42027 39149 ft 564 kts 80°
2026-05-06 17:01 41.22450 -95.31782 39158 ft 564 kts 80°
2026-05-06 17:02 41.23845 -95.21508 39153 ft 564 kts 80°
2026-05-06 17:02 41.25226 -95.11252 39146 ft 563 kts 80°
2026-05-06 17:03 41.26592 -95.01002 39144 ft 562 kts 80°
2026-05-06 17:03 41.27933 -94.90856 39141 ft 562 kts 80°
2026-05-06 17:04 41.29277 -94.80611 39145 ft 563 kts 81°
2026-05-06 17:04 41.30607 -94.70408 39143 ft 563 kts 81°
2026-05-06 17:05 41.31938 -94.60123 39142 ft 564 kts 81°
2026-05-06 17:05 41.33261 -94.49825 39128 ft 565 kts 81°
2026-05-06 17:06 41.34578 -94.39490 39138 ft 566 kts 81°
2026-05-06 17:06 41.35888 -94.29146 39140 ft 566 kts 81°
2026-05-06 17:07 41.37188 -94.18792 39123 ft 567 kts 81°
2026-05-06 17:07 41.38473 -94.08487 39127 ft 568 kts 81°
2026-05-06 17:08 41.39746 -93.98203 39135 ft 568 kts 81°
2026-05-06 17:08 41.41022 -93.87812 39129 ft 569 kts 81°
2026-05-06 17:09 41.42289 -93.77411 39124 ft 569 kts 81°
2026-05-06 17:09 41.43549 -93.66997 39133 ft 569 kts 81°
2026-05-06 17:10 41.44708 -93.56528 39125 ft 569 kts 83°
2026-05-06 17:10 41.45690 -93.46053 39132 ft 569 kts 84°
2026-05-06 17:11 41.46643 -93.35637 39135 ft 570 kts 84°
2026-05-06 17:11 41.47624 -93.25147 39130 ft 570 kts 84°
2026-05-06 17:12 41.48613 -93.14663 39131 ft 569 kts 84°
2026-05-06 17:12 41.49595 -93.04182 39116 ft 569 kts 84°
2026-05-06 17:13 41.50556 -92.93785 39122 ft 569 kts 84°
2026-05-06 17:13 41.51514 -92.83293 39130 ft 570 kts 84°
2026-05-06 17:14 41.52464 -92.72773 39140 ft 571 kts 84°
2026-05-06 17:14 41.53400 -92.62313 39173 ft 571 kts 84°
2026-05-06 17:15 41.54334 -92.51759 39138 ft 571 kts 84°
2026-05-06 17:15 41.55256 -92.41237 39115 ft 570 kts 84°
2026-05-06 17:16 41.56166 -92.30735 39107 ft 568 kts 84°
2026-05-06 17:16 41.57065 -92.20252 39111 ft 568 kts 84°
2026-05-06 17:17 41.57954 -92.09765 39108 ft 568 kts 85°
2026-05-06 17:17 41.58826 -91.99364 39103 ft 569 kts 85°
2026-05-06 17:18 41.59693 -91.88908 39084 ft 570 kts 85°
2026-05-06 17:18 41.60557 -91.78369 39108 ft 571 kts 85°
2026-05-06 17:19 41.61413 -91.67812 39126 ft 572 kts 85°
2026-05-06 17:19 41.62260 -91.57239 39125 ft 572 kts 85°
2026-05-06 17:20 41.63098 -91.46654 39110 ft 573 kts 85°
2026-05-06 17:20 41.63928 -91.36045 39112 ft 574 kts 85°
2026-05-06 17:21 41.64749 -91.25430 39111 ft 574 kts 85°
2026-05-06 17:21 41.65560 -91.14807 39099 ft 574 kts 85°
2026-05-06 17:22 41.66363 -91.04169 39080 ft 574 kts 85°
2026-05-06 17:22 41.67148 -90.93635 39081 ft 574 kts 85°
2026-05-06 17:23 41.67929 -90.83010 39080 ft 574 kts 85°
2026-05-06 17:23 41.68702 -90.72368 39068 ft 574 kts 86°
2026-05-06 17:24 41.69460 -90.61788 39082 ft 574 kts 86°
2026-05-06 17:24 41.70214 -90.51131 39084 ft 575 kts 86°
2026-05-06 17:25 41.70959 -90.40464 39072 ft 575 kts 86°
2026-05-06 17:25 41.71693 -90.29810 39067 ft 575 kts 86°
2026-05-06 17:26 41.72296 -90.20934 39073 ft 575 kts 86°
2026-05-06 17:26 41.73014 -90.10241 39068 ft 576 kts 86°
2026-05-06 17:27 41.73715 -89.99660 39062 ft 576 kts 86°
2026-05-06 17:27 41.74413 -89.88963 39058 ft 576 kts 86°
2026-05-06 17:28 41.75097 -89.78329 39067 ft 576 kts 86°
2026-05-06 17:28 41.75775 -89.67645 39067 ft 576 kts 86°
2026-05-06 17:29 41.76442 -89.56955 39062 ft 575 kts 86°
2026-05-06 17:29 41.77101 -89.46240 39062 ft 575 kts 86°
2026-05-06 17:30 41.77748 -89.35553 39059 ft 575 kts 87°
2026-05-06 17:30 41.78386 -89.24871 39044 ft 574 kts 87°
2026-05-06 17:31 41.79007 -89.14282 39044 ft 573 kts 87°
2026-05-06 17:31 41.79622 -89.03637 39038 ft 573 kts 87°
2026-05-06 17:32 41.80222 -88.93088 39037 ft 573 kts 87°
2026-05-06 17:32 41.80817 -88.82440 39024 ft 573 kts 87°
2026-05-06 17:33 41.81402 -88.71793 39033 ft 573 kts 87°
2026-05-06 17:33 41.81978 -88.61130 39030 ft 573 kts 87°
2026-05-06 17:34 41.82545 -88.50451 39029 ft 574 kts 87°
2026-05-06 17:34 41.83102 -88.39779 39017 ft 574 kts 88°
2026-05-06 17:35 41.83650 -88.29085 39026 ft 575 kts 88°
2026-05-06 17:35 41.84189 -88.18376 39027 ft 575 kts 88°
2026-05-06 17:36 41.84975 -88.02368 39010 ft 576 kts 88°
2026-05-06 17:36 41.85484 -87.91768 39007 ft 576 kts 88°
2026-05-06 17:37 41.85987 -87.81076 39029 ft 576 kts 88°
2026-05-06 17:37 41.86483 -87.70308 39008 ft 576 kts 88°
2026-05-06 17:38 41.86968 -87.59554 39082 ft 579 kts 88°
2026-05-06 17:38 41.87208 -87.54156 39286 ft 579 kts 88°
2026-05-06 17:38 41.87445 -87.48771 39565 ft 577 kts 88°
2026-05-06 17:39 41.87679 -87.43417 39872 ft 574 kts 88°
2026-05-06 17:39 41.87909 -87.38084 40184 ft 571 kts 88°
2026-05-06 17:39 41.88135 -87.32767 40455 ft 569 kts 88°
2026-05-06 17:39 41.88359 -87.27461 40657 ft 569 kts 88°
2026-05-06 17:40 41.88577 -87.22225 40834 ft 570 kts 88°
2026-05-06 17:40 41.88795 -87.16909 40965 ft 570 kts 88°
2026-05-06 17:40 41.89227 -87.06233 41040 ft 570 kts 89°
2026-05-06 17:41 41.89643 -86.95719 41041 ft 569 kts 89°
2026-05-06 17:41 41.90054 -86.85104 41034 ft 568 kts 89°
2026-05-06 17:42 41.90450 -86.74591 41042 ft 568 kts 89°
2026-05-06 17:42 41.90840 -86.64002 41038 ft 567 kts 89°
2026-05-06 17:43 41.91220 -86.53418 41033 ft 568 kts 89°
2026-05-06 17:43 41.91590 -86.42835 41032 ft 568 kts 89°
2026-05-06 17:44 41.91951 -86.32237 41020 ft 568 kts 89°
2026-05-06 17:44 41.92302 -86.21618 41016 ft 568 kts 89°
2026-05-06 17:45 41.92644 -86.11012 41020 ft 568 kts 89°
2026-05-06 17:45 41.92976 -86.00396 41014 ft 568 kts 89°
2026-05-06 17:46 41.93295 -85.89895 41011 ft 568 kts 89°
2026-05-06 17:46 41.93606 -85.79307 41007 ft 567 kts 90°
2026-05-06 17:47 41.93906 -85.68791 40999 ft 567 kts 90°
2026-05-06 17:47 41.94198 -85.58211 41000 ft 567 kts 90°
2026-05-06 17:48 41.94480 -85.47629 41000 ft 566 kts 90°
2026-05-06 17:48 41.94753 -85.37048 40992 ft 566 kts 90°
2026-05-06 17:49 41.95017 -85.26476 40996 ft 566 kts 90°
2026-05-06 17:49 41.95186 -85.15966 40991 ft 566 kts 92°
2026-05-06 17:50 41.95124 -85.05394 40991 ft 565 kts 93°
2026-05-06 17:50 41.95026 -84.94943 40989 ft 565 kts 93°
2026-05-06 17:51 41.94959 -84.84377 40992 ft 566 kts 93°
2026-05-06 17:51 41.94904 -84.73842 40985 ft 566 kts 93°
2026-05-06 17:52 41.94842 -84.63264 40963 ft 567 kts 93°
2026-05-06 17:52 41.94766 -84.52671 40982 ft 567 kts 93°
2026-05-06 17:53 41.94678 -84.42106 40984 ft 567 kts 93°
2026-05-06 17:53 41.94580 -84.31525 41007 ft 567 kts 93°
2026-05-06 17:54 41.94474 -84.21004 41000 ft 568 kts 93°
2026-05-06 17:54 41.94357 -84.10404 41012 ft 568 kts 93°
2026-05-06 17:55 41.94231 -83.99852 41017 ft 569 kts 94°
2026-05-06 17:55 41.94096 -83.89346 40982 ft 569 kts 94°
2026-05-06 17:56 41.93950 -83.78701 40990 ft 569 kts 94°
2026-05-06 17:56 41.93794 -83.68048 40984 ft 569 kts 94°
2026-05-06 17:57 41.93629 -83.57467 40970 ft 570 kts 94°
2026-05-06 17:57 41.93463 -83.46905 40969 ft 570 kts 93°
2026-05-06 17:58 41.93404 -83.36246 40985 ft 571 kts 92°
2026-05-06 17:58 41.93388 -83.25586 40992 ft 571 kts 92°
2026-05-06 17:59 41.93347 -83.14904 40957 ft 571 kts 92°
2026-05-06 17:59 41.93279 -83.04246 40966 ft 570 kts 93°
2026-05-06 18:00 41.93198 -82.93753 40969 ft 570 kts 93°
2026-05-06 18:00 41.93108 -82.83086 40966 ft 571 kts 93°
2026-05-06 18:01 41.93010 -82.72412 40950 ft 571 kts 93°
2026-05-06 18:01 41.92902 -82.61766 40966 ft 571 kts 93°
2026-05-06 18:02 41.92784 -82.51096 40967 ft 572 kts 93°
2026-05-06 18:02 41.92656 -82.40403 40972 ft 573 kts 93°
2026-05-06 18:03 41.92518 -82.29765 40962 ft 573 kts 93°
2026-05-06 18:03 41.92370 -82.19060 40973 ft 574 kts 93°
2026-05-06 18:04 41.92211 -82.08313 40966 ft 575 kts 93°
2026-05-06 18:04 41.92044 -81.97661 40991 ft 576 kts 94°
2026-05-06 18:05 41.91867 -81.86910 40966 ft 575 kts 94°
2026-05-06 18:05 41.91312 -81.76242 40967 ft 570 kts 100°
2026-05-06 18:06 41.90332 -81.65705 40967 ft 568 kts 101°
2026-05-06 18:06 41.89325 -81.55190 40970 ft 567 kts 100°
2026-05-06 18:07 41.88363 -81.44744 40977 ft 567 kts 100°
2026-05-06 18:07 41.87564 -81.35945 40974 ft 567 kts 100°
2026-05-06 18:08 41.86603 -81.25453 40961 ft 567 kts 100°
2026-05-06 18:08 41.85626 -81.14950 40932 ft 567 kts 100°
2026-05-06 18:09 41.84643 -81.04516 40942 ft 568 kts 100°
2026-05-06 18:09 41.83652 -80.94081 40957 ft 571 kts 100°
2026-05-06 18:10 41.82634 -80.83477 40958 ft 574 kts 100°
2026-05-06 18:10 41.81604 -80.72841 40960 ft 576 kts 100°
2026-05-06 18:11 41.80563 -80.62179 40932 ft 577 kts 100°
2026-05-06 18:11 41.79506 -80.51501 40908 ft 578 kts 100°
2026-05-06 18:12 41.78432 -80.40794 40914 ft 578 kts 101°
2026-05-06 18:12 41.77352 -80.30122 40917 ft 577 kts 101°
2026-05-06 18:13 41.76264 -80.19459 40914 ft 577 kts 101°
2026-05-06 18:13 41.75168 -80.08817 40905 ft 576 kts 101°
2026-05-06 18:14 41.74073 -79.98287 40911 ft 575 kts 101°
2026-05-06 18:14 41.72960 -79.87675 40904 ft 575 kts 101°
2026-05-06 18:15 41.71838 -79.77082 40882 ft 574 kts 101°
2026-05-06 18:15 41.70708 -79.66504 40895 ft 574 kts 101°
2026-05-06 18:16 41.69569 -79.55939 40882 ft 573 kts 101°
2026-05-06 18:16 41.68429 -79.45450 40882 ft 573 kts 101°
2026-05-06 18:17 41.67272 -79.34898 40863 ft 573 kts 101°
2026-05-06 18:17 41.66108 -79.24362 40853 ft 572 kts 101°
2026-05-06 18:18 41.64936 -79.13844 40864 ft 572 kts 101°
2026-05-06 18:18 41.63757 -79.03319 40824 ft 573 kts 101°
2026-05-06 18:19 41.62582 -78.92899 40852 ft 572 kts 101°
2026-05-06 18:19 41.61503 -78.83416 40826 ft 573 kts 101°
2026-05-06 18:20 41.60297 -78.72886 40862 ft 573 kts 101°
2026-05-06 18:20 41.59077 -78.62334 40238 ft 582 kts 101°
2026-05-06 18:21 41.58468 -78.57106 39629 ft 582 kts 102°
2026-05-06 18:21 41.57847 -78.51786 39004 ft 582 kts 102°
2026-05-06 18:21 41.57220 -78.46442 38318 ft 584 kts 102°
2026-05-06 18:21 41.56588 -78.41072 37537 ft 585 kts 102°
2026-05-06 18:22 41.55954 -78.35709 36829 ft 585 kts 102°
2026-05-06 18:22 41.55316 -78.30341 36148 ft 585 kts 103°
2026-05-06 18:22 41.54677 -78.24978 35434 ft 586 kts 103°
2026-05-06 18:22 41.54031 -78.19589 34852 ft 585 kts 103°
2026-05-06 18:23 41.53388 -78.14231 34391 ft 581 kts 103°
2026-05-06 18:23 41.52750 -78.08932 33912 ft 577 kts 103°
2026-05-06 18:23 41.52111 -78.03653 33416 ft 574 kts 103°
2026-05-06 18:23 41.51486 -77.98504 32964 ft 570 kts 103°
2026-05-06 18:24 41.50826 -77.93274 32796 ft 574 kts 104°
2026-05-06 18:24 41.50105 -77.88042 32831 ft 572 kts 105°
2026-05-06 18:24 41.48599 -77.77662 32820 ft 568 kts 105°
2026-05-06 18:25 41.47091 -77.67337 32839 ft 572 kts 105°
2026-05-06 18:25 41.45582 -77.56880 32806 ft 574 kts 105°
2026-05-06 18:26 41.44081 -77.46461 32820 ft 570 kts 105°
2026-05-06 18:26 41.42579 -77.36121 32815 ft 567 kts 105°
2026-05-06 18:27 41.41070 -77.25810 32610 ft 562 kts 105°
2026-05-06 18:27 41.40325 -77.20750 32030 ft 560 kts 105°
2026-05-06 18:27 41.39577 -77.15682 31543 ft 556 kts 105°
2026-05-06 18:28 41.38833 -77.10661 31114 ft 551 kts 105°
2026-05-06 18:28 41.38091 -77.05664 30711 ft 545 kts 106°
2026-05-06 18:28 41.37357 -77.00744 30306 ft 540 kts 106°
2026-05-06 18:28 41.36640 -76.95953 29900 ft 535 kts 106°
2026-05-06 18:29 41.35912 -76.91106 29398 ft 531 kts 106°
2026-05-06 18:29 41.35200 -76.86374 28944 ft 525 kts 105°
2026-05-06 18:29 41.34488 -76.81641 28507 ft 520 kts 105°
2026-05-06 18:29 41.33760 -76.76946 28080 ft 514 kts 108°
2026-05-06 18:30 41.32795 -76.72417 27631 ft 505 kts 114°
2026-05-06 18:30 41.31623 -76.68047 27209 ft 499 kts 117°
2026-05-06 18:30 41.30380 -76.63759 26819 ft 493 kts 117°
2026-05-06 18:30 41.29151 -76.59532 26421 ft 489 kts 117°
2026-05-06 18:31 41.27954 -76.55311 26019 ft 486 kts 116°
2026-05-06 18:31 41.26797 -76.51111 25645 ft 482 kts 115°
2026-05-06 18:31 41.25667 -76.46937 25241 ft 478 kts 115°
2026-05-06 18:31 41.24555 -76.42793 24892 ft 473 kts 115°
2026-05-06 18:32 41.23452 -76.38684 24534 ft 470 kts 115°
2026-05-06 18:32 41.22356 -76.34613 24176 ft 466 kts 115°
2026-05-06 18:32 41.21263 -76.30571 23830 ft 463 kts 114°
2026-05-06 18:32 41.20179 -76.26569 23480 ft 459 kts 114°
2026-05-06 18:33 41.19099 -76.22593 23099 ft 455 kts 114°
2026-05-06 18:33 41.18040 -76.18704 22725 ft 451 kts 114°
2026-05-06 18:33 41.16977 -76.14806 22359 ft 447 kts 114°
2026-05-06 18:33 41.15924 -76.10945 21983 ft 442 kts 114°
2026-05-06 18:34 41.14884 -76.07137 21656 ft 437 kts 114°
2026-05-06 18:34 41.13849 -76.03359 21299 ft 433 kts 115°
2026-05-06 18:34 41.12840 -75.99684 20939 ft 430 kts 115°
2026-05-06 18:34 41.11817 -75.95964 20498 ft 429 kts 115°
2026-05-06 18:35 41.10797 -75.92262 20088 ft 426 kts 115°
2026-05-06 18:35 41.09786 -75.88591 19802 ft 421 kts 115°
2026-05-06 18:35 41.08786 -75.84965 19514 ft 417 kts 115°
2026-05-06 18:35 41.07792 -75.81365 19199 ft 413 kts 115°
2026-05-06 18:36 41.06810 -75.77815 18872 ft 410 kts 115°
2026-05-06 18:36 41.05830 -75.74278 18558 ft 407 kts 115°
2026-05-06 18:36 41.04856 -75.70770 18256 ft 404 kts 115°
2026-05-06 18:36 41.03892 -75.67300 17926 ft 400 kts 115°
2026-05-06 18:37 41.02933 -75.63849 17589 ft 397 kts 115°
2026-05-06 18:37 41.02301 -75.61580 17343 ft 396 kts 115°
2026-05-06 18:37 41.01028 -75.57020 16829 ft 393 kts 115°
2026-05-06 18:37 41.00084 -75.53640 16484 ft 391 kts 115°
2026-05-06 18:38 40.99142 -75.50274 16146 ft 388 kts 115°
2026-05-06 18:38 40.98209 -75.46939 15797 ft 386 kts 116°
2026-05-06 18:38 40.97277 -75.43614 15447 ft 384 kts 116°
2026-05-06 18:38 40.96347 -75.40298 15096 ft 382 kts 116°
2026-05-06 18:39 40.95421 -75.37001 14756 ft 380 kts 116°
2026-05-06 18:39 40.94513 -75.33772 14462 ft 378 kts 116°
2026-05-06 18:39 40.93601 -75.30531 14155 ft 375 kts 116°
2026-05-06 18:40 40.91790 -75.24112 13514 ft 371 kts 116°
2026-05-06 18:40 40.90888 -75.20925 13151 ft 369 kts 116°
2026-05-06 18:40 40.89983 -75.17724 12786 ft 367 kts 116°
2026-05-06 18:40 40.89088 -75.14567 12419 ft 365 kts 116°
2026-05-06 18:41 40.88199 -75.11432 12053 ft 366 kts 116°
2026-05-06 18:41 40.87266 -75.08170 12064 ft 395 kts 115°
2026-05-06 18:41 40.86294 -75.04738 12033 ft 392 kts 115°
2026-05-06 18:41 40.85399 -75.01522 11745 ft 371 kts 116°
2026-05-06 18:42 40.84521 -74.98399 11632 ft 368 kts 116°
2026-05-06 18:42 40.83648 -74.95301 11342 ft 352 kts 116°
2026-05-06 18:42 40.82788 -74.92277 10551 ft 356 kts 117°
2026-05-06 18:42 40.81831 -74.89262 10352 ft 352 kts 120°
2026-05-06 18:43 40.80825 -74.86366 10307 ft 342 kts 121°
2026-05-06 18:43 40.80111 -74.83422 10201 ft 340 kts 101°
2026-05-06 18:43 40.80266 -74.80360 10065 ft 331 kts 77°
2026-05-06 18:43 40.81004 -74.77499 9817 ft 330 kts 69°
2026-05-06 18:44 40.81867 -74.74720 9789 ft 325 kts 68°
2026-05-06 18:44 40.82726 -74.72024 9498 ft 316 kts 68°
2026-05-06 18:44 40.83582 -74.69361 8867 ft 314 kts 68°
2026-05-06 18:44 40.84146 -74.67607 8431 ft 313 kts 68°